DW9750 Weather Reports


time (UTC)temp
F
wind
direction
speed
knots
gust
knots
rain 1hr
in
rain 24hr
in
rain mn
in
humidity
%
barometer
mb
20260510071529 70 66 0.0 0.9 0.00 0.00 0.00 83 1009.1
20260510070029 70 177 0.0 2.6 0.00 0.00 0.00 84 1009.2
20260510064532 69 66 0.0 2.6 0.00 0.00 0.00 85 1009.1
20260510063034 69 343 0.0 0.9 0.00 0.00 0.00 85 1009.2
20260510061525 69 343 0.0 0.0 0.00 0.00 0.00 85 1009.3
20260510060024 70 343 0.0 0.9 0.00 0.00 0.00 83 1009.3
20260510054519 70 343 0.0 0.9 0.00 0.00 0.00 81 1009.3
20260510053017 71 343 0.0 0.0 0.00 0.00 0.00 80 1009.2
20260510051515 71 343 0.0 0.9 0.00 0.00 0.00 79 1009.1
20260510050012 72 335 0.0 0.0 0.00 0.00 0.00 79 1009.0
20260510044512 72 335 0.0 0.9 0.00 0.00 0.00 78 1008.9
20260510043011 73 82 0.9 3.5 0.00 0.00 0.00 75 1008.8
20260510041511 74 75 0.0 0.0 0.00 0.00 0.00 75 1008.7
20260510040015 74 75 0.9 2.6 0.00 0.00 0.00 74 1008.7
20260510034509 75 82 0.9 2.6 0.00 0.00 0.00 72 1008.7
20260510033011 76 73 0.9 3.5 0.00 0.00 0.00 71 1008.6
20260510031515 76 92 1.7 5.2 0.00 0.00 0.00 70 1008.5
20260510030011 77 143 1.7 4.3 0.00 0.00 0.00 68 1008.4
20260510024507 78 85 1.7 4.3 0.00 0.00 0.00 67 1008.2
20260510023007 79 94 2.6 5.2 0.00 0.00 0.00 65 1008.0
20260510021509 80 81 1.7 4.3 0.00 0.00 0.00 63 1007.8
20260510020007 81 86 1.7 4.3 0.00 0.00 0.00 62 1007.5
20260510014507 81 93 3.5 7.0 0.00 0.00 0.00 60 1007.2
20260510013004 82 92 3.5 6.1 0.00 0.00 0.00 61 1006.9
20260510011504 83 98 2.6 6.1 0.00 0.00 0.00 59 1006.7
20260510010003 85 66 2.6 6.1 0.00 0.00 0.00 56 1006.5
20260510004501 88 77 2.6 6.1 0.00 0.00 0.00 49 1006.2
20260510003106 90 109 0.0 0.9 0.00 0.00 0.00 42 1006.0
20260510001600 91 199 0.0 2.6 0.00 0.00 0.00 42 1006.0
20260510000100 92 131 0.0 2.6 0.00 0.00 0.00 37 1006.0
20260509234605 93 270 0.0 2.6 0.00 0.00 0.00 35 1006.0
20260509233057 93 196 0.0 2.6 0.00 0.00 0.00 35 1006.0
20260509231558 93 262 0.0 3.5 0.00 0.00 0.00 33 1006.0
20260509230056 92 267 0.9 2.6 0.00 0.00 0.00 39 1006.0
20260509224559 92 211 1.7 4.3 0.00 0.00 0.00 42 1006.1
20260509223051 92 225 0.9 5.2 0.00 0.00 0.00 40 1006.0
20260509221602 92 273 0.9 4.3 0.00 0.00 0.00 41 1006.2
20260509220047 91 166 0.9 3.5 0.00 0.00 0.00 43 1006.2
20260509214548 92 293 1.7 5.2 0.00 0.00 0.00 43 1006.3
20260509213045 91 208 2.6 5.2 0.00 0.00 0.00 42 1006.3
20260509211545 92 272 0.9 7.0 0.00 0.00 0.00 42 1006.5
20260509210038 91 244 1.7 4.3 0.00 0.00 0.00 46 1006.8
20260509204536 90 283 2.6 6.1 0.00 0.00 0.00 45 1007.0
20260509203033 89 241 2.6 7.0 0.00 0.00 0.00 49 1007.1
20260509201536 89 234 0.9 6.1 0.00 0.00 0.00 52 1007.3
20260509200029 88 192 3.5 7.0 0.00 0.00 0.00 53 1007.8
20260509194526 88 265 1.7 7.8 0.00 0.00 0.00 55 1008.0
20260509193022 87 251 1.7 7.8 0.00 0.00 0.00 55 1008.4
20260509191521 87 2 1.7 6.1 0.00 0.00 0.00 56 1008.5
20260509190021 87 252 2.6 6.1 0.00 0.00 0.00 60 1008.5
20260509184522 85 245 3.5 7.8 0.00 0.00 0.00 63 1008.6
20260509183015 85 262 4.3 9.6 0.00 0.00 0.00 59 1008.9
20260509181512 85 224 1.7 5.2 0.00 0.00 0.00 65 1009.1
20260509180008 83 319 2.6 4.3 0.00 0.00 0.00 64 1009.3
20260509174506 83 122 1.7 4.3 0.00 0.00 0.00 68 1009.6
20260509173003 82 274 2.6 4.3 0.00 0.00 0.00 71 1009.7
20260509171559 80 241 0.9 2.6 0.00 0.00 0.00 75 1009.9
20260509170107 80 285 0.0 2.6 0.00 0.00 0.00 76 1010.1
20260509164600 80 161 0.9 3.5 0.00 0.00 0.00 74 1010.2
20260509163054 79 111 0.9 3.5 0.00 0.00 0.00 78 1010.2
20260509161558 77 67 0.9 4.3 0.00 0.00 0.00 80 1010.3
20260509160052 78 256 0.9 3.5 0.00 0.00 0.00 80 1010.3
20260509154548 77 116 2.6 6.1 0.00 0.00 0.00 81 1010.6
20260509153052 76 269 0.9 6.1 0.00 0.00 0.00 84 1010.4
20260509151542 74 177 2.6 5.2 0.00 0.00 0.00 85 1010.3
20260509150037 73 169 1.7 5.2 0.00 0.00 0.00 86 1010.1
20260509144534 72 249 0.9 4.3 0.00 0.00 0.00 87 1010.0
20260509143034 72 256 1.7 4.3 0.00 0.00 0.00 88 1009.7
20260509141533 72 307 2.6 5.2 0.00 0.00 0.00 88 1010.3
20260509140027 72 111 0.0 2.6 0.00 0.00 0.00 90 1010.4
20260509134524 71 92 0.0 0.0 0.00 0.00 0.00 90 1010.3
20260509133022 71 299 0.0 0.0 0.00 0.00 0.00 91 1010.3
20260509131525 71 9 0.0 0.0 0.00 0.00 0.00 93 1010.1
20260509130019 70 322 0.0 1.7 0.00 0.00 0.00 94 1010.1
20260509124521 70 87 0.0 1.7 0.00 0.00 0.00 95 1010.2
20260509123016 70 145 0.0 0.0 0.00 0.00 0.00 95 1009.9
20260509121523 70 324 0.0 1.7 0.00 0.00 0.00 96 1010.2
20260509120016 70 88 0.0 0.9 0.00 0.00 0.00 96 1010.2
20260509114523 70 303 0.0 0.0 0.00 0.00 0.00 96 1010.2
20260509113013 70 342 0.0 2.6 0.00 0.00 0.00 96 1010.0
20260509111513 70 49 0.0 1.7 0.00 0.00 0.00 96 1010.3
20260509110013 70 35 0.0 2.6 0.00 0.00 0.00 96 1010.0
20260509104511 70 102 0.0 1.7 0.00 0.00 0.00 95 1009.5
20260509103010 70 83 0.0 2.6 0.00 0.00 0.00 96 1009.5
20260509101510 70 65 0.0 0.0 0.00 0.00 0.00 96 1009.6
20260509100019 70 7 0.0 0.0 0.00 0.00 0.00 96 1009.3
20260509094512 70 7 0.0 0.0 0.00 0.00 0.00 95 1009.0
20260509093010 70 7 0.0 0.0 0.00 0.00 0.00 95 1009.0
20260509091510 70 7 0.0 0.0 0.00 0.00 0.00 95 1008.6
20260509090007 70 7 0.0 0.0 0.00 0.00 0.00 95 1008.6
20260509084511 70 7 0.0 0.0 0.00 0.00 0.00 95 1008.9
20260509083004 70 34 0.0 0.9 0.00 0.00 0.00 95 1009.2
20260509081503 70 73 0.0 0.0 0.00 0.00 0.00 95 1009.3
20260509080002 70 73 0.0 0.0 0.00 0.00 0.00 95 1009.4
20260509074502 70 73 0.0 0.0 0.00 0.00 0.00 95 1009.1
20260509073001 70 73 0.0 0.0 0.00 0.00 0.00 94 1008.9